DW1352 Weather Reports


time (UTC)temp
C
wind
direction
speed
KPH
gust
KPH
rain 1hr
cm
rain 24hr
cm
rain mn
cm
humidity
%
barometer
mb
20260507104217 3 6 12.9 25.7 0.00 0.00 0.00 81 1011.8
20260507103214 3 6 11.3 25.7 0.00 0.00 0.00 81 1012.0
20260507102238 4 6 11.3 22.5 0.00 0.00 0.00 81 1012.0
20260507101238 4 6 9.7 24.1 0.00 0.00 0.00 81 1012.2
20260507100202 4 6 14.5 25.7 0.00 0.00 0.00 81 1012.3
20260507095220 4 6 9.7 20.9 0.00 0.00 0.00 81 1012.4
20260507094231 4 6 12.9 24.1 0.00 0.00 0.00 81 1012.5
20260507093239 4 6 12.9 20.9 0.00 0.00 0.00 81 1012.6
20260507092157 5 6 12.9 29.0 0.00 0.00 0.00 81 1012.7
20260507091237 5 6 14.5 27.4 0.00 0.00 0.00 81 1012.7
20260507085206 5 6 12.9 24.1 0.00 0.00 0.00 81 1012.8
20260507084225 5 6 14.5 25.7 0.00 0.00 0.00 81 1012.9
20260507083224 5 6 11.3 22.5 0.00 0.00 0.00 80 1012.9
20260507082222 5 6 12.9 25.7 0.00 0.00 0.00 80 1013.0
20260507081211 5 6 12.9 29.0 0.00 0.00 0.00 80 1013.1
20260507080220 5 6 14.5 30.6 0.00 0.00 0.00 81 1013.2
20260507075203 5 6 14.5 27.4 0.00 0.00 0.00 81 1013.4
20260507074159 5 6 16.1 29.0 0.00 0.00 0.00 81 1013.4
20260507072225 5 6 12.9 30.6 0.00 0.00 0.00 80 1013.9
20260507071228 5 6 12.9 29.0 0.00 0.00 0.00 81 1014.2
20260507070223 5 6 16.1 30.6 0.00 0.00 0.00 80 1014.4
20260507065219 5 6 12.9 27.4 0.00 0.00 0.00 80 1014.5
20260507064228 5 6 12.9 30.6 0.00 0.00 0.00 80 1014.5
20260507063240 5 6 12.9 25.7 0.00 0.00 0.00 80 1014.6
20260507062223 5 6 9.7 27.4 0.00 0.00 0.00 79 1014.7
20260507061205 6 214 11.3 27.4 0.00 0.00 0.00 79 1014.7
20260507060204 6 233 12.9 25.7 0.00 0.00 0.00 78 1014.8
20260507055222 6 214 12.9 27.4 0.00 0.00 0.00 78 1014.8
20260507054220 6 216 14.5 33.8 0.00 0.00 0.00 77 1014.9
20260507052210 6 224 12.9 27.4 0.00 0.00 0.00 76 1015.1
20260507051209 6 216 12.9 27.4 0.00 0.00 0.00 75 1015.1
20260507050233 6 219 12.9 27.4 0.00 0.00 0.00 74 1015.1
20260507045220 6 218 12.9 29.0 0.00 0.00 0.00 72 1015.1
20260507044230 6 212 16.1 24.1 0.00 0.00 0.00 70 1015.3
20260507043206 6 211 11.3 22.5 0.00 0.00 0.00 68 1015.4
20260507042209 7 211 14.5 25.7 0.00 0.00 0.00 66 1015.6
20260507041157 7 210 11.3 22.5 0.00 0.00 0.00 65 1015.6
20260507040209 7 215 9.7 20.9 0.00 0.00 0.00 63 1015.7
20260507035213 7 220 8.0 17.7 0.00 0.00 0.00 62 1015.7
20260507034207 7 208 9.7 22.5 0.00 0.00 0.00 61 1015.9
20260507033241 8 205 9.7 24.1 0.00 0.00 0.00 61 1016.0
20260507032208 8 236 11.3 24.1 0.00 0.00 0.00 60 1016.0
20260507031215 8 216 8.0 24.1 0.00 0.00 0.00 60 1016.1
20260507030215 8 214 9.7 20.9 0.00 0.00 0.00 60 1016.1
20260507025223 8 227 11.3 24.1 0.00 0.00 0.00 60 1016.0
20260507024203 8 212 11.3 29.0 0.00 0.00 0.00 60 1015.8
20260507021157 9 198 9.7 24.1 0.00 0.00 0.00 61 1015.8
20260507020224 10 6 12.9 25.7 0.00 0.00 0.00 61 1016.0
20260507015233 10 224 11.3 22.5 0.00 0.00 0.00 59 1015.8
20260507014156 10 214 11.3 20.9 0.00 0.00 0.00 57 1015.7
20260507013230 10 236 11.3 22.5 0.00 0.00 0.00 56 1015.6
20260507012205 10 248 8.0 25.7 0.00 0.00 0.00 54 1015.6
20260507011208 11 212 9.7 25.7 0.00 0.00 0.00 53 1015.7
20260507010206 11 217 9.7 27.4 0.00 0.00 0.00 53 1015.6
20260507005210 11 212 16.1 25.7 0.00 0.00 0.00 50 1015.6
20260507004239 11 258 11.3 24.1 0.00 0.00 0.00 49 1015.5
20260507003234 11 255 4.8 20.9 0.00 0.00 0.00 49 1015.5
20260507002220 11 250 9.7 27.4 0.00 0.00 0.00 48 1015.5
20260507001157 12 261 12.9 24.1 0.00 0.00 0.00 47 1015.5
20260507000205 12 253 12.9 19.3 0.00 0.00 0.00 46 1015.6
20260506234240 12 238 9.7 22.5 0.00 0.00 0.00 46 1015.8
20260506233219 12 251 9.7 25.7 0.00 0.00 0.00 45 1015.9
20260506232201 12 275 14.5 22.5 0.00 0.00 0.00 45 1015.9
20260506231220 11 263 11.3 20.9 0.00 0.03 0.00 46 1016.1
20260506230231 11 263 4.8 16.1 0.00 0.03 0.00 47 1016.1
20260506225237 11 206 6.4 17.7 0.00 0.03 0.00 45 1016.2
20260506224218 12 262 1.6 16.1 0.00 0.03 0.00 45 1016.2
20260506223206 12 257 6.4 19.3 0.00 0.03 0.00 43 1016.2
20260506222220 12 216 11.3 25.7 0.00 0.03 0.00 43 1016.2
20260506221206 12 209 12.9 20.9 0.00 0.03 0.00 42 1016.3
20260506220202 12 270 3.2 24.1 0.00 0.03 0.00 39 1016.4
20260506215209 12 226 9.7 29.0 0.00 0.03 0.00 40 1016.5
20260506214232 12 244 11.3 20.9 0.00 0.03 0.00 39 1016.3
20260506213232 12 199 1.6 14.5 0.00 0.03 0.00 40 1016.4
20260506212240 12 278 8.0 17.7 0.00 0.03 0.00 39 1016.6
20260506211207 12 242 9.7 16.1 0.00 0.03 0.00 40 1016.6
20260506210223 12 245 4.8 17.7 0.00 0.03 0.00 40 1016.8
20260506205220 12 271 1.6 16.1 0.00 0.03 0.00 41 1017.0
20260506204200 12 312 8.0 19.3 0.00 0.03 0.00 40 1017.1
20260506202235 12 300 8.0 19.3 0.00 0.03 0.00 37 1017.3
20260506201226 12 259 4.8 14.5 0.00 0.03 0.00 39 1017.3
20260506200209 12 243 11.3 20.9 0.00 0.03 0.00 39 1017.3
20260506195230 12 223 9.7 24.1 0.00 0.03 0.00 41 1017.4
20260506194236 11 256 9.7 19.3 0.00 0.03 0.00 42 1017.6
20260506192208 11 251 9.7 19.3 0.00 0.03 0.00 41 1017.8
20260506191227 11 259 11.3 17.7 0.00 0.03 0.00 42 1018.0
20260506190230 11 313 3.2 8.0 0.00 0.03 0.00 39 1017.9
20260506185240 11 298 4.8 20.9 0.00 0.03 0.00 42 1018.2
20260506184239 11 235 6.4 17.7 0.00 0.03 0.00 39 1018.4
20260506182212 12 304 4.8 19.3 0.00 0.03 0.00 41 1018.6
20260506180208 11 225 8.0 19.3 0.00 0.03 0.00 43 1018.7
20260506175241 10 232 8.0 17.7 0.00 0.03 0.00 41 1018.9
20260506174227 10 248 6.4 16.1 0.00 0.03 0.00 43 1018.9
20260506173231 10 177 6.4 9.7 0.00 0.03 0.00 43 1018.8
20260506171217 9 284 4.8 11.3 0.00 0.03 0.00 43 1018.8
20260506170237 9 6 3.2 6.4 0.00 0.03 0.00 42 1018.9
20260506164222 10 18 4.8 14.5 0.00 0.03 0.00 43 1018.8
20260506163218 10 25 4.8 8.0 0.00 0.03 0.00 42 1018.7
20260506162227 10 37 3.2 17.7 0.00 0.03 0.00 43 1018.7
20260506161204 11 6 6.4 16.1 0.00 0.03 0.00 41 1018.7
20260506154214 10 183 3.2 8.0 0.00 0.03 0.00 45 1018.9
20260506152221 10 1 6.4 9.7 0.00 0.03 0.00 44 1019.0
20260506151204 10 6 3.2 6.4 0.00 0.03 0.00 42 1019.0
20260506144222 8 6 1.6 6.4 0.00 0.03 0.00 46 1018.7
20260506143216 7 340 0.0 3.2 0.00 0.03 0.00 50 1018.8
20260506142239 7 328 1.6 4.8 0.00 0.03 0.00 51 1018.8
20260506141207 7 351 0.0 4.8 0.00 0.03 0.00 56 1018.8
20260506134228 5 327 1.6 4.8 0.00 0.03 0.00 68 1018.6
20260506133214 5 334 1.6 6.4 0.00 0.03 0.00 70 1018.7
20260506132228 4 6 1.6 4.8 0.00 0.03 0.00 70 1018.7
20260506131208 3 6 3.2 6.4 0.00 0.03 0.00 72 1018.7
20260506130231 3 339 1.6 4.8 0.00 0.03 0.00 74 1018.4
20260506125214 3 328 3.2 4.8 0.00 0.03 0.00 76 1018.1
20260506124227 3 328 1.6 4.8 0.00 0.03 0.00 76 1018.0
20260506123200 3 328 3.2 4.8 0.00 0.03 0.00 77 1017.8
20260506122217 3 328 3.2 4.8 0.00 0.03 0.00 77 1017.7
20260506121238 3 328 3.2 4.8 0.00 0.03 0.00 77 1017.7
20260506115220 3 328 3.2 6.4 0.00 0.03 0.00 80 1017.3
20260506114220 3 328 3.2 4.8 0.00 0.03 0.00 80 1017.3
20260506113221 3 328 3.2 4.8 0.00 0.03 0.00 81 1017.2
20260506112227 3 328 3.2 6.4 0.00 0.03 0.00 81 1017.1
20260506111238 3 327 3.2 4.8 0.00 0.03 0.00 82 1017.1
20260506105230 3 305 3.2 6.4 0.00 0.03 0.00 85 1017.1